Lid_Strength_Index
8 9 10 12 13 11 14 14 16 15 12 9 7 7 6 7 6 6 6 6 5 4 4 4 3 3 2 3 2 2 2 2
8 9 9 9 9 13 15 17 18 16 15 14 10 9 7 7 7 6 6 5 5 4 4 3 3 2 2 2 2 2 2 1
11 12 12 11 12 14 14 15 16 19 16 9 9 8 8 8 6 6 6 5 5 4 4 3 3 3 2 2 2 2 2 1
13 10 9 9 11 12 15 16 15 14 14 8 7 7 8 7 6 6 5 5 5 4 4 4 3 3 3 2 2 2 2 1
14 12 11 11 11 13 13 15 15 16 14 8 7 7 7 7 7 6 6 5 5 4 4 4 3 3 3 2 2 2 2 2
16 13 12 13 11 12 13 15 15 14 13 10 9 8 7 8 8 6 6 5 5 5 4 4 3 3 3 2 2 2 2 2
13 12 11 12 11 11 13 13 14 12 11 9 8 8 7 6 6 6 6 6 5 5 4 4 4 3 3 2 2 2 2 2
13 11 11 11 11 11 11 11 12 12 10 8 7 7 7 6 7 7 6 5 5 4 4 4 4 3 3 3 2 2 2 2
15 12 12 14 11 11 11 10 10 12 10 7 8 7 7 7 7 6 6 5 5 4 4 4 3 3 3 3 2 2 2 2
15 13 16 12 9 9 10 10 9 10 10 7 7 6 6 6 7 6 5 5 5 4 4 3 3 3 2 2 2 2 3 2
14 15 13 10 9 10 11 12 8 9 9 7 6 6 7 5 4 5 4 4 4 3 3 3 3 2 2 3 3 3 3 2
14 15 15 13 9 7 8 14 8 8 8 8 7 10 9 6 4 4 4 4 4 3 3 3 3 2 3 3 3 3 3 2
15 15 14 10 8 7 13 14 8 7 7 7 9 8 6 5 5 4 4 4 3 3 3 3 3 2 3 3 3 2 2 2
14 16 16 8 8 12 10 8 7 7 7 7 6 6 6 5 5 5 5 4 4 4 4 3 2 3 3 3 2 2 2 3
12 13 9 7 8 6 6 8 7 7 6 6 6 6 5 5 5 5 4 4 4 4 4 3 3 3 3 3 3 2 4 2
11 10 9 8 7 6 6 6 5 5 5 6 6 5 5 5 5 5 4 4 4 4 4 5 5 4 4 3 3 3 3 2
11 9 9 7 6 6 6 5 5 5 5 6 7 7 5 5 5 4 4 4 4 4 5 5 5 4 3 3 2 2 3 3
12 8 9 9 6 5 5 5 5 5 5 4 5 5 5 5 5 4 4 5 5 5 4 4 3 3 3 2 2 2 3 3
8 6 7 6 5 4 5 5 4 4 5 5 4 4 4 5 5 6 5 5 6 6 5 3 3 3 3 2 3 3 3 4